sampling_time,wmo_synop_id,msc_id,stn_nam,stn_elev,lat,long,stn_typ,date_tm,rpt_typ,result_time,crnt_buoy_lat,crnt_buoy_lat_qa_summary,crnt_buoy_long,crnt_buoy_long_qa_summary,avg_air_temp_pst10mts,avg_air_temp_pst10mts_qa_summary,avg_sea_sfc_temp_pst10mts,avg_sea_sfc_temp_pst10mts_qa_summary,avg_batry_volt_pst10mts,avg_batry_volt_pst10mts_qa_summary,avg_solr_panl_crnt_pst10mts,avg_solr_panl_crnt_pst10mts_qa_summary,avg_wtr_lvl_snsr_volt_pst10mts,avg_wtr_lvl_snsr_volt_pst10mts_qa_summary,avg_wave_hgt_pst20mts,avg_wave_hgt_pst20mts_qa_summary,pk_wave_hgt_pst20mts,pk_wave_hgt_pst20mts_qa_summary,sig_wave_pd_pst20mts,sig_wave_pd_pst20mts_qa_summary,sig_wave_hgt_pst20mts,sig_wave_hgt_pst20mts_qa_summary,avg_max_wave_hgt_pst20mts,avg_max_wave_hgt_pst20mts_qa_summary,avg_max_wave_pd_pst20mts,avg_max_wave_pd_pst20mts_qa_summary,avg_wave_pd_pst20mts,avg_wave_pd_pst20mts_qa_summary,pk_wave_pd_pst20mts,pk_wave_pd_pst20mts_qa_summary,avg_stn_pres_pst10mts,avg_stn_pres_pst10mts_qa_summary,avg_wnd_spd_pst10mts,avg_wnd_spd_pst10mts_qa_summary,avg_wnd_dir_pst10mts,avg_wnd_dir_pst10mts_qa_summary,max_avg_wnd_spd_pst10mts,max_avg_wnd_spd_pst10mts_qa_summary,wnd_snsr_vert_disp,wnd_snsr_vert_disp_qa_summary,pres_tend_char_pst3hrs,pres_tend_char_pst3hrs_data_flag,pres_tend_amt_pst3hrs,pres_tend_amt_pst3hrs_data_flag,avg_mslp_pst10mts,avg_mslp_pst10mts_data_flag,avg_stn_pres_pst10mts_1,avg_stn_pres_pst10mts_1_qa_summary,avg_stn_pres_pst10mts_2,avg_stn_pres_pst10mts_2_qa_summary,avg_wnd_spd_pst10mts_1,avg_wnd_spd_pst10mts_1_qa_summary,avg_wnd_spd_pst10mts_2,avg_wnd_spd_pst10mts_2_qa_summary,avg_wnd_dir_pst10mts_1,avg_wnd_dir_pst10mts_1_qa_summary,avg_wnd_dir_pst10mts_2,avg_wnd_dir_pst10mts_2_qa_summary,max_avg_wnd_spd_pst10mts_1,max_avg_wnd_spd_pst10mts_1_qa_summary,max_avg_wnd_spd_pst10mts_2,max_avg_wnd_spd_pst10mts_2_qa_summary
2022-10-21T00:00:00Z,44489,9302001,WEST CHEDABUCTO BAY,0,45.48687,-61.14100000000001,18,2022-10-21T00:00:00.000Z,108,2022-10-21T00:03:05.172Z,45.48725,100,-61.1411,100,12.4,100,13.6,100,12.6,100,0.0,100,3.6,100,0.4,100,1.0,100,4.6,100,0.6,100,0.7,100,5.9,100,3.5,100,9.5,100,1016.9,100,23.8,100,239,100,28.8,100,5,100,3,1,1.8,1,1016.9,1,1016.9,100,1017.0,100,23.8,100,23.0,100,239,100,241,100,28.8,100,27.7,100
2022-10-21T00:10:00Z,44489,9302001,WEST CHEDABUCTO BAY,0,45.48687,-61.14100000000001,18,2022-10-21T00:10:00.000Z,110,2022-10-21T00:16:06.180Z,,-1,,-1,12.3,100,13.6,100,12.6,100,0.0,100,3.6,100,,-1,,-1,,-1,,-1,,-1,,-1,,-1,,-1,1017.1,100,25.6,100,241,100,30.2,100,5,100,3,1,1.9,1,1017.1,1,1017.1,100,1017.1,100,25.6,100,24.5,100,241,100,244,100,30.2,100,29.5,100
2022-10-21T00:20:00Z,44489,9302001,WEST CHEDABUCTO BAY,0,45.48687,-61.14100000000001,18,2022-10-21T00:20:00.000Z,110,2022-10-21T00:23:07.246Z,45.48725,100,-61.14108,100,12.3,100,13.5,100,12.6,100,0.0,100,3.6,100,,-1,,-1,,-1,,-1,,-1,,-1,,-1,,-1,1017.2,100,28.1,100,245,100,32.0,100,5,100,3,1,2.0,1,1017.2,1,1017.2,100,1017.2,100,28.1,100,27.0,100,245,100,247,100,32.0,100,31.3,100
2022-10-21T00:30:00Z,44489,9302001,WEST CHEDABUCTO BAY,0,45.48687,-61.14100000000001,18,2022-10-21T00:30:00.000Z,110,2022-10-21T00:33:13.399Z,45.48725,100,-61.14108,100,12.2,100,13.5,100,12.6,100,0.0,100,3.6,100,,-1,,-1,,-1,,-1,,-1,,-1,,-1,,-1,1017.4,100,27.4,100,253,100,33.8,100,5,100,3,1,2.0,1,1017.4,1,1017.4,100,1017.4,100,27.4,100,26.6,100,253,100,255,100,33.8,100,32.8,100
2022-10-21T00:40:00Z,44489,9302001,WEST CHEDABUCTO BAY,0,45.48687,-61.14100000000001,18,2022-10-21T00:40:00.000Z,110,2022-10-21T00:43:06.746Z,45.48725,100,-61.1411,100,11.8,100,13.5,100,12.6,100,0.0,100,3.6,100,,-1,,-1,,-1,,-1,,-1,,-1,,-1,,-1,1017.6,100,25.9,100,257,100,32.0,100,5,100,3,1,2.2,1,1017.6,1,1017.6,100,1017.6,100,25.9,100,25.2,100,257,100,260,100,32.0,100,31.7,100
2022-10-21T00:50:00Z,44489,9302001,WEST CHEDABUCTO BAY,0,45.48687,-61.14100000000001,18,2022-10-21T00:50:00.000Z,110,2022-10-21T00:53:07.515Z,45.48723,100,-61.1411,100,11.5,100,13.5,100,12.6,100,0.0,100,3.6,100,,-1,,-1,,-1,,-1,,-1,,-1,,-1,,-1,1017.7,100,24.1,100,261,100,28.4,100,5,100,3,1,2.3,1,1017.7,1,1017.7,100,1017.8,100,24.1,100,23.4,100,261,100,263,100,28.4,100,28.1,100
2022-10-21T01:00:00Z,44489,9302001,WEST CHEDABUCTO BAY,0,45.48687,-61.14100000000001,18,2022-10-21T01:00:00.000Z,108,2022-10-21T01:03:17.997Z,45.48723,100,-61.1411,100,11.3,100,13.5,100,12.6,100,0.0,100,3.6,100,0.4,100,1.0,100,5.2,100,0.6,100,0.8,100,6.7,100,3.7,100,9.5,100,1017.9,100,22.0,100,264,100,27.0,100,5,100,3,1,2.4,1,1017.9,1,1017.9,100,1017.9,100,22.0,100,21.6,100,264,100,266,100,27.0,100,26.6,100
2022-10-21T01:10:00Z,44489,9302001,WEST CHEDABUCTO BAY,0,45.48687,-61.14100000000001,18,2022-10-21T01:10:00.000Z,110,2022-10-21T01:16:24.322Z,45.48725,100,-61.14108,100,11.1,100,13.4,100,12.6,100,0.0,100,3.6,100,,-1,,-1,,-1,,-1,,-1,,-1,,-1,,-1,1018.0,100,20.9,100,265,100,26.3,100,5,100,3,1,2.4,1,1018.0,1,1018.0,100,1018.0,100,20.9,100,20.5,100,265,100,267,100,26.3,100,25.6,100
2022-10-21T01:20:00Z,44489,9302001,WEST CHEDABUCTO BAY,0,45.48687,-61.14100000000001,18,2022-10-21T01:20:00.000Z,110,2022-10-21T01:23:27.265Z,45.48723,100,-61.1411,100,11.0,100,13.4,100,12.6,100,0.0,100,3.6,100,,-1,,-1,,-1,,-1,,-1,,-1,,-1,,-1,1018.2,100,20.9,100,265,100,25.9,100,5,100,3,1,2.5,1,1018.2,1,1018.2,100,1018.2,100,20.9,100,20.5,100,265,100,267,100,25.9,100,24.8,100
2022-10-21T01:30:00Z,44489,9302001,WEST CHEDABUCTO BAY,0,45.48687,-61.14100000000001,18,2022-10-21T01:30:00.000Z,110,2022-10-21T01:33:23.817Z,45.48725,100,-61.14112,100,10.9,100,13.4,100,12.6,100,0.0,100,3.6,100,,-1,,-1,,-1,,-1,,-1,,-1,,-1,,-1,1018.3,100,21.2,100,264,100,24.1,100,5,100,3,1,2.6,1,1018.3,1,1018.3,100,1018.4,100,21.2,100,20.9,100,264,100,267,100,24.1,100,23.4,100
2022-10-21T01:40:00Z,44489,9302001,WEST CHEDABUCTO BAY,0,45.48687,-61.14100000000001,18,2022-10-21T01:40:00.000Z,110,2022-10-21T01:43:26.371Z,45.48723,100,-61.1411,100,10.8,100,13.4,100,12.6,100,0.0,100,3.6,100,,-1,,-1,,-1,,-1,,-1,,-1,,-1,,-1,1018.6,100,21.2,100,261,100,25.2,100,5,100,3,1,2.7,1,1018.6,1,1018.6,100,1018.6,100,21.2,100,20.5,100,261,100,263,100,25.2,100,24.1,100
2022-10-21T01:50:00Z,44489,9302001,WEST CHEDABUCTO BAY,0,45.48687,-61.14100000000001,18,2022-10-21T01:50:00.000Z,110,2022-10-21T01:53:30.402Z,45.48725,100,-61.14112,100,10.9,100,13.4,100,12.6,100,0.0,100,3.6,100,,-1,,-1,,-1,,-1,,-1,,-1,,-1,,-1,1018.6,100,19.8,100,260,100,23.4,100,5,100,3,1,2.6,1,1018.6,1,1018.6,100,1018.6,100,19.8,100,19.4,100,260,100,262,100,23.4,100,23.0,100
2022-10-21T02:00:00Z,44489,9302001,WEST CHEDABUCTO BAY,0,45.48687,-61.14100000000001,18,2022-10-21T02:00:00.000Z,108,2022-10-21T02:08:43.922Z,45.48727,100,-61.141119999999994,100,10.9,100,13.4,100,12.6,100,0.0,100,3.6,100,0.4,100,0.9,100,6.3,100,0.6,100,0.7,100,8.0,100,4.1,100,10.0,100,1018.7,100,19.4,100,261,100,23.0,100,5,100,3,1,2.5,1,1018.7,1,1018.7,100,1018.8,100,19.4,100,18.7,100,261,100,263,100,23.0,100,23.0,100
2022-10-21T02:10:00Z,44489,9302001,WEST CHEDABUCTO BAY,0,45.48687,-61.14100000000001,18,2022-10-21T02:10:00.000Z,110,2022-10-21T02:16:44.599Z,45.48727,100,-61.14112,100,11.0,100,13.3,100,12.6,100,0.0,100,3.6,100,,-1,,-1,,-1,,-1,,-1,,-1,,-1,,-1,1018.8,100,19.8,100,258,100,24.8,100,5,100,3,1,2.5,1,1018.8,1,1018.8,100,1018.9,100,19.8,100,19.4,100,258,100,260,100,24.8,100,24.5,100
2022-10-21T02:20:00Z,44489,9302001,WEST CHEDABUCTO BAY,0,45.48687,-61.14100000000001,18,2022-10-21T02:20:00.000Z,110,2022-10-21T02:23:49.252Z,45.48727,100,-61.141119999999994,100,11.0,100,13.3,100,12.6,100,0.0,100,3.6,100,,-1,,-1,,-1,,-1,,-1,,-1,,-1,,-1,1018.9,100,19.4,100,257,100,22.3,100,5,100,2,1,2.5,1,1018.9,1,1018.9,100,1018.9,100,19.4,100,19.1,100,257,100,259,100,22.3,100,22.0,100
2022-10-21T02:30:00Z,44489,9302001,WEST CHEDABUCTO BAY,0,45.48687,-61.14100000000001,18,2022-10-21T02:30:00.000Z,110,2022-10-21T02:32:45.359Z,45.48733,100,-61.14115,100,10.8,100,13.3,100,12.6,100,0.0,100,3.6,100,,-1,,-1,,-1,,-1,,-1,,-1,,-1,,-1,1019.1,100,20.5,100,256,100,24.5,100,5,100,1,1,2.6,1,1019.1,1,1019.1,100,1019.1,100,20.5,100,20.2,100,256,100,258,100,24.5,100,23.8,100
2022-10-21T02:40:00Z,44489,9302001,WEST CHEDABUCTO BAY,0,45.48687,-61.14100000000001,18,2022-10-21T02:40:00.000Z,110,2022-10-21T02:42:50.539Z,45.48725,100,-61.141119999999994,100,10.7,100,13.3,100,12.6,100,0.0,100,3.6,100,,-1,,-1,,-1,,-1,,-1,,-1,,-1,,-1,1019.3,100,22.0,100,256,100,25.2,100,5,100,1,1,2.7,1,1019.3,1,1019.3,100,1019.3,100,22.0,100,21.6,100,256,100,258,100,25.2,100,24.1,100
2022-10-21T02:50:00Z,44489,9302001,WEST CHEDABUCTO BAY,0,45.48687,-61.14100000000001,18,2022-10-21T02:50:00.000Z,110,2022-10-21T02:52:47.496Z,45.48727,100,-61.14112,100,10.8,100,13.3,100,12.5,100,0.0,100,3.6,100,,-1,,-1,,-1,,-1,,-1,,-1,,-1,,-1,1019.2,100,20.2,100,260,100,23.4,100,5,100,1,1,2.4,1,1019.2,1,1019.2,100,1019.2,100,20.2,100,19.4,100,260,100,262,100,23.4,100,23.4,100
2022-10-21T03:00:00Z,44489,9302001,WEST CHEDABUCTO BAY,0,45.48687,-61.14100000000001,18,2022-10-21T03:00:00.000Z,108,2022-10-21T03:02:51.373Z,45.48727,100,-61.141130000000004,100,10.7,100,13.3,100,12.5,100,0.0,100,3.6,100,0.3,100,0.8,100,6.6,100,0.5,100,0.6,100,7.8,100,4.3,100,9.1,100,1019.3,100,19.8,100,258,100,23.0,100,5,100,1,1,2.4,1,1019.3,1,1019.3,100,1019.3,100,19.8,100,19.4,100,258,100,260,100,23.0,100,22.7,100
2022-10-21T03:10:00Z,44489,9302001,WEST CHEDABUCTO BAY,0,45.48687,-61.14100000000001,18,2022-10-21T03:10:00.000Z,110,2022-10-21T03:15:54.471Z,45.48727,100,-61.14113,100,10.6,100,13.3,100,12.6,100,0.0,100,3.6,100,,-1,,-1,,-1,,-1,,-1,,-1,,-1,,-1,1019.3,100,20.9,100,262,100,24.5,100,5,100,1,1,2.2,1,1019.3,1,1019.3,100,1019.3,100,20.9,100,20.2,100,262,100,265,100,24.5,100,23.4,100
2022-10-21T03:20:00Z,44489,9302001,WEST CHEDABUCTO BAY,0,45.48687,-61.14100000000001,18,2022-10-21T03:20:00.000Z,110,2022-10-21T03:22:58.019Z,45.48728,100,-61.1412,100,10.7,100,13.3,100,12.6,100,0.0,100,3.6,100,,-1,,-1,,-1,,-1,,-1,,-1,,-1,,-1,1019.3,100,19.8,100,263,100,23.8,100,5,100,1,1,2.2,1,1019.3,1,1019.3,100,1019.4,100,19.8,100,19.4,100,263,100,265,100,23.8,100,23.4,100
2022-10-21T03:30:00Z,44489,9302001,WEST CHEDABUCTO BAY,0,45.48687,-61.14100000000001,18,2022-10-21T03:30:00.000Z,110,2022-10-21T03:33:10.712Z,45.48727,100,-61.14117,100,10.8,100,13.3,100,12.6,100,0.0,100,3.6,100,,-1,,-1,,-1,,-1,,-1,,-1,,-1,,-1,1019.5,100,17.6,100,256,100,20.2,100,5,100,1,1,2.2,1,1019.5,1,1019.5,100,1019.6,100,17.6,100,17.3,100,256,100,259,100,20.2,100,19.8,100
2022-10-21T03:40:00Z,44489,9302001,WEST CHEDABUCTO BAY,0,45.48687,-61.14100000000001,18,2022-10-21T03:40:00.000Z,110,2022-10-21T03:43:07.498Z,45.48728,100,-61.1412,100,10.8,100,13.3,100,12.5,100,0.0,100,3.6,100,,-1,,-1,,-1,,-1,,-1,,-1,,-1,,-1,1019.6,100,16.6,100,256,100,19.4,100,5,100,1,1,2.0,1,1019.6,1,1019.6,100,1019.6,100,16.6,100,15.8,100,256,100,258,100,19.4,100,18.7,100
2022-10-21T03:50:00Z,44489,9302001,WEST CHEDABUCTO BAY,0,45.48687,-61.14100000000001,18,2022-10-21T03:50:00.000Z,110,2022-10-21T03:53:11.420Z,45.48725,100,-61.14112,100,11.1,100,13.3,100,12.5,100,0.0,100,3.6,100,,-1,,-1,,-1,,-1,,-1,,-1,,-1,,-1,1019.6,100,16.2,100,254,100,19.1,100,5,100,1,1,1.8,1,1019.6,1,1019.6,100,1019.6,100,16.2,100,15.8,100,254,100,256,100,19.1,100,18.4,100
2022-10-21T04:00:00Z,44489,9302001,WEST CHEDABUCTO BAY,0,45.48687,-61.14100000000001,18,2022-10-21T04:00:00.000Z,108,2022-10-21T04:03:09.309Z,45.48727,100,-61.141119999999994,100,10.9,100,13.2,100,12.5,100,0.0,100,3.6,100,0.3,100,0.9,100,8.5,100,0.5,100,0.7,100,9.2,100,5.6,100,10.0,100,1019.7,100,16.2,100,258,100,19.1,100,5,100,1,1,1.8,1,1019.7,1,1019.7,100,1019.7,100,16.2,100,15.8,100,258,100,260,100,19.1,100,18.7,100
2022-10-21T04:10:00Z,44489,9302001,WEST CHEDABUCTO BAY,0,45.48687,-61.14100000000001,18,2022-10-21T04:10:00.000Z,110,2022-10-21T04:16:19.746Z,45.48723,100,-61.14112,100,10.9,100,13.2,100,12.6,100,0.0,100,3.6,100,,-1,,-1,,-1,,-1,,-1,,-1,,-1,,-1,1019.8,100,16.2,100,260,100,18.7,100,5,100,1,1,1.8,1,1019.8,1,1019.8,100,1019.8,100,16.2,100,15.8,100,260,100,262,100,18.7,100,18.7,100
2022-10-21T04:20:00Z,44489,9302001,WEST CHEDABUCTO BAY,0,45.48687,-61.14100000000001,18,2022-10-21T04:20:00.000Z,110,2022-10-21T04:23:15.433Z,45.48723,100,-61.141130000000004,100,10.7,100,13.2,100,12.6,100,0.0,100,3.6,100,,-1,,-1,,-1,,-1,,-1,,-1,,-1,,-1,1019.6,100,13.7,100,260,100,16.9,100,5,100,1,1,1.5,1,1019.6,1,1019.6,100,1019.7,100,13.7,100,13.3,100,260,100,263,100,16.9,100,16.2,100
2022-10-21T04:30:00Z,44489,9302001,WEST CHEDABUCTO BAY,0,45.48687,-61.14100000000001,18,2022-10-21T04:30:00.000Z,110,2022-10-21T04:33:16.021Z,45.48725,100,-61.14112,100,10.7,100,13.2,100,12.6,100,0.0,100,3.6,100,,-1,,-1,,-1,,-1,,-1,,-1,,-1,,-1,1019.7,100,11.5,100,254,100,13.7,100,5,100,1,1,1.3,1,1019.7,1,1019.7,100,1019.7,100,11.5,100,11.2,100,254,100,256,100,13.7,100,13.7,100
2022-10-21T04:40:00Z,44489,9302001,WEST CHEDABUCTO BAY,0,45.48687,-61.14100000000001,18,2022-10-21T04:40:00.000Z,110,2022-10-21T04:43:22.908Z,45.48725,100,-61.14115,100,10.9,100,13.2,100,12.5,100,0.0,100,3.6,100,,-1,,-1,,-1,,-1,,-1,,-1,,-1,,-1,1020.0,100,11.9,100,253,100,14.4,100,5,100,1,1,1.4,1,1020.0,1,1020.0,100,1020.0,100,11.9,100,11.5,100,253,100,255,100,14.4,100,14.4,100
2022-10-21T04:50:00Z,44489,9302001,WEST CHEDABUCTO BAY,0,45.48687,-61.14100000000001,18,2022-10-21T04:50:00.000Z,110,2022-10-21T04:53:20.647Z,45.48725,100,-61.14112,100,10.8,100,13.2,100,12.5,100,0.0,100,3.6,100,,-1,,-1,,-1,,-1,,-1,,-1,,-1,,-1,1019.9,100,11.2,100,258,100,13.0,100,5,100,1,1,1.2,1,1019.9,1,1019.9,100,1019.9,100,11.2,100,10.8,100,258,100,261,100,13.0,100,12.6,100
2022-10-21T05:00:00Z,44489,9302001,WEST CHEDABUCTO BAY,0,45.48687,-61.14100000000001,18,2022-10-21T05:00:00.000Z,108,2022-10-21T05:03:26.966Z,45.48723,100,-61.141130000000004,100,10.7,100,13.2,100,12.5,100,0.0,100,3.6,100,0.3,100,1.0,100,8.8,100,0.5,100,0.7,100,9.7,100,6.4,100,9.5,100,1019.8,100,11.5,100,263,100,14.0,100,5,100,1,1,1.1,1,1019.8,1,1019.8,100,1019.8,100,11.5,100,11.5,100,263,100,265,100,14.0,100,14.0,100
2022-10-21T05:10:00Z,44489,9302001,WEST CHEDABUCTO BAY,0,45.48687,-61.14100000000001,18,2022-10-21T05:10:00.000Z,110,2022-10-21T05:16:32.840Z,45.48727,100,-61.14113,100,10.6,100,13.2,100,12.5,100,0.0,100,3.6,100,,-1,,-1,,-1,,-1,,-1,,-1,,-1,,-1,1020.0,100,11.9,100,269,100,14.4,100,5,100,1,1,1.2,1,1020.0,1,1020.0,100,1020.0,100,11.9,100,11.5,100,269,100,272,100,14.4,100,14.4,100
2022-10-21T05:20:00Z,44489,9302001,WEST CHEDABUCTO BAY,0,45.48687,-61.14100000000001,18,2022-10-21T05:20:00.000Z,110,2022-10-21T05:23:34.296Z,45.48725,100,-61.14115,100,10.7,100,13.2,100,12.5,100,0.0,100,3.6,100,,-1,,-1,,-1,,-1,,-1,,-1,,-1,,-1,1020.0,100,11.5,100,276,100,15.1,100,5,100,2,1,1.1,1,1020.0,1,1020.0,100,1020.0,100,11.5,100,11.5,100,276,100,279,100,15.1,100,15.1,100
2022-10-21T05:30:00Z,44489,9302001,WEST CHEDABUCTO BAY,0,45.48687,-61.14100000000001,18,2022-10-21T05:30:00.000Z,110,2022-10-21T05:33:38.021Z,45.48725,100,-61.14115,100,11.0,100,13.2,100,12.5,100,0.0,100,3.6,100,,-1,,-1,,-1,,-1,,-1,,-1,,-1,,-1,1020.1,100,10.1,100,276,100,13.3,100,5,100,2,1,1.0,1,1020.1,1,1020.1,100,1020.1,100,10.1,100,10.1,100,276,100,278,100,13.3,100,13.0,100
2022-10-21T05:40:00Z,44489,9302001,WEST CHEDABUCTO BAY,0,45.48687,-61.14100000000001,18,2022-10-21T05:40:00.000Z,110,2022-10-21T05:43:37.797Z,45.48722,100,-61.141119999999994,100,11.0,100,13.2,100,12.5,100,0.0,100,3.6,100,,-1,,-1,,-1,,-1,,-1,,-1,,-1,,-1,1020.1,100,6.5,100,267,100,9.0,100,5,100,1,1,0.8,1,1020.1,1,1020.1,100,1020.1,100,6.5,100,6.5,100,267,100,269,100,9.0,100,9.0,100
2022-10-21T05:50:00Z,44489,9302001,WEST CHEDABUCTO BAY,0,45.48687,-61.14100000000001,18,2022-10-21T05:50:00.000Z,110,2022-10-21T05:52:47.962Z,45.48722,100,-61.14113,100,10.9,100,13.1,100,12.5,100,0.0,100,3.6,100,,-1,,-1,,-1,,-1,,-1,,-1,,-1,,-1,1020.2,100,6.8,100,277,100,10.4,100,5,100,2,1,1.0,1,1020.2,1,1020.2,100,1020.2,100,6.8,100,6.8,100,277,100,279,100,10.4,100,10.1,100
2022-10-21T06:00:00Z,44489,9302001,WEST CHEDABUCTO BAY,0,45.48687,-61.14100000000001,18,2022-10-21T06:00:00.000Z,108,2022-10-21T06:02:41.542Z,45.48723,100,-61.141130000000004,100,10.9,100,13.1,100,12.5,100,0.0,100,3.6,100,0.3,100,0.8,100,8.8,100,0.5,100,0.6,100,8.5,100,6.6,100,10.0,100,1020.2,100,5.8,100,275,100,7.6,100,5,100,2,1,0.9,1,1020.2,1,1020.2,100,1020.2,100,5.8,100,5.8,100,275,100,277,100,7.6,100,7.6,100
2022-10-21T06:10:00Z,44489,9302001,WEST CHEDABUCTO BAY,0,45.48687,-61.14100000000001,18,2022-10-21T06:10:00.000Z,110,2022-10-21T06:15:54.801Z,45.48723,100,-61.14113,100,11.0,100,13.1,100,12.5,100,0.0,100,3.6,100,,-1,,-1,,-1,,-1,,-1,,-1,,-1,,-1,1020.0,100,4.7,100,270,100,7.6,100,5,100,1,1,0.8,1,1020.0,1,1020.0,100,1020.1,100,4.7,100,4.7,100,270,100,272,100,7.6,100,7.6,100
2022-10-21T06:20:00Z,44489,9302001,WEST CHEDABUCTO BAY,0,45.48687,-61.14100000000001,18,2022-10-21T06:20:00.000Z,110,2022-10-21T06:22:52.891Z,45.48725,100,-61.14115,100,11.1,100,13.1,100,12.5,100,0.0,100,3.6,100,,-1,,-1,,-1,,-1,,-1,,-1,,-1,,-1,1019.9,100,7.6,100,283,100,10.1,100,5,100,0,1,0.6,1,1019.9,1,1019.9,100,1020.0,100,7.6,100,7.6,100,283,100,285,100,10.1,100,10.4,100
2022-10-21T06:30:00Z,44489,9302001,WEST CHEDABUCTO BAY,0,45.48687,-61.14100000000001,18,2022-10-21T06:30:00.000Z,110,2022-10-21T06:32:55.419Z,45.48723,100,-61.14115,100,11.0,100,13.1,100,12.5,100,0.0,100,3.6,100,,-1,,-1,,-1,,-1,,-1,,-1,,-1,,-1,1020.0,100,7.2,100,296,100,10.1,100,5,100,0,1,0.4,1,1020.0,1,1020.0,100,1020.0,100,7.2,100,7.2,100,296,100,299,100,10.1,100,10.1,100
2022-10-21T06:40:00Z,44489,9302001,WEST CHEDABUCTO BAY,0,45.48687,-61.14100000000001,18,2022-10-21T06:40:00.000Z,110,2022-10-21T06:43:05.076Z,45.48723,100,-61.14115,100,11.2,100,13.1,100,12.5,100,0.0,100,3.6,100,,-1,,-1,,-1,,-1,,-1,,-1,,-1,,-1,1020.1,100,9.7,100,291,100,14.0,100,5,100,1,1,0.5,1,1020.1,1,1020.1,100,1020.1,100,9.7,100,9.4,100,291,100,293,100,14.0,100,14.0,100
2022-10-21T06:50:00Z,44489,9302001,WEST CHEDABUCTO BAY,0,45.48687,-61.14100000000001,18,2022-10-21T06:50:00.000Z,110,2022-10-21T06:52:57.528Z,45.48725,100,-61.14113,100,10.7,100,13.1,100,12.5,100,0.0,100,3.6,100,,-1,,-1,,-1,,-1,,-1,,-1,,-1,,-1,1020.1,100,10.4,100,302,100,14.8,100,5,100,0,1,0.6,1,1020.1,1,1020.1,100,1020.1,100,10.4,100,10.4,100,302,100,304,100,14.8,100,14.4,100
2022-10-21T07:00:00Z,44489,9302001,WEST CHEDABUCTO BAY,0,45.48687,-61.14100000000001,18,2022-10-21T07:00:00.000Z,108,2022-10-21T07:03:03.086Z,45.48723,100,-61.14115,100,10.7,100,13.1,100,12.5,100,0.0,100,3.6,100,0.4,100,1.0,100,9.2,100,0.6,100,0.9,100,9.1,100,7.0,100,10.0,100,1020.1,100,10.4,100,273,100,13.3,100,5,100,0,1,0.4,1,1020.1,1,1020.1,100,1020.1,100,10.4,100,10.4,100,273,100,275,100,13.3,100,13.3,100
2022-10-21T07:10:00Z,44489,9302001,WEST CHEDABUCTO BAY,0,45.48687,-61.14100000000001,18,2022-10-21T07:10:00.000Z,110,2022-10-21T07:16:03.889Z,45.48722,100,-61.14113,100,10.7,100,13.2,100,12.5,100,0.0,100,3.6,100,,-1,,-1,,-1,,-1,,-1,,-1,,-1,,-1,1020.1,100,12.6,100,269,100,15.8,100,5,100,1,1,0.3,1,1020.1,1,1020.1,100,1020.1,100,12.6,100,12.2,100,269,100,271,100,15.8,100,15.5,100
2022-10-21T07:20:00Z,44489,9302001,WEST CHEDABUCTO BAY,0,45.48687,-61.14100000000001,18,2022-10-21T07:20:00.000Z,110,2022-10-21T07:23:03.133Z,45.48725,100,-61.14115,100,10.7,100,13.2,100,12.5,100,0.0,100,3.6,100,,-1,,-1,,-1,,-1,,-1,,-1,,-1,,-1,1020.1,100,14.0,100,271,100,17.6,100,5,100,1,1,0.5,1,1020.1,1,1020.1,100,1020.1,100,14.0,100,13.7,100,271,100,274,100,17.6,100,17.3,100
2022-10-21T07:30:00Z,44489,9302001,WEST CHEDABUCTO BAY,0,45.48687,-61.14100000000001,18,2022-10-21T07:30:00.000Z,110,2022-10-21T07:33:07.172Z,45.48725,100,-61.14115,100,10.6,100,13.2,100,12.5,100,0.0,100,3.6,100,,-1,,-1,,-1,,-1,,-1,,-1,,-1,,-1,1020.1,100,13.7,100,271,100,16.9,100,5,100,1,1,0.5,1,1020.1,1,1020.1,100,1020.1,100,13.7,100,13.3,100,271,100,274,100,16.9,100,16.6,100
2022-10-21T07:40:00Z,44489,9302001,WEST CHEDABUCTO BAY,0,45.48687,-61.14100000000001,18,2022-10-21T07:40:00.000Z,110,2022-10-21T07:43:06.791Z,45.48723,100,-61.14115,100,10.4,100,13.2,100,12.5,100,0.0,100,3.6,100,,-1,,-1,,-1,,-1,,-1,,-1,,-1,,-1,1020.1,100,12.6,100,269,100,15.1,100,5,100,1,1,0.2,1,1020.1,1,1020.1,100,1020.1,100,12.6,100,12.2,100,269,100,271,100,15.1,100,14.8,100
2022-10-21T07:50:00Z,44489,9302001,WEST CHEDABUCTO BAY,0,45.48687,-61.14100000000001,18,2022-10-21T07:50:00.000Z,110,2022-10-21T07:53:12.178Z,45.48723,100,-61.14115,100,10.3,100,13.2,100,12.5,100,0.0,100,3.6,100,,-1,,-1,,-1,,-1,,-1,,-1,,-1,,-1,1020.0,100,10.8,100,276,100,14.0,100,5,100,0,1,0.2,1,1020.0,1,1020.0,100,1020.0,100,10.8,100,10.8,100,276,100,279,100,14.0,100,14.0,100
2022-10-21T08:00:00Z,44489,9302001,WEST CHEDABUCTO BAY,0,45.48687,-61.14100000000001,18,2022-10-21T08:00:00.000Z,108,2022-10-21T08:03:12.712Z,45.48723,100,-61.141130000000004,100,10.3,100,13.2,100,12.5,100,0.0,100,3.6,100,0.4,100,1.0,100,8.7,100,0.6,100,0.7,100,8.5,100,5.9,100,9.5,100,1020.1,100,11.9,100,283,100,13.7,100,5,100,1,1,0.3,1,1020.1,1,1020.1,100,1020.1,100,11.9,100,11.5,100,283,100,286,100,13.7,100,13.7,100
2022-10-21T08:10:00Z,44489,9302001,WEST CHEDABUCTO BAY,0,45.48687,-61.14100000000001,18,2022-10-21T08:10:00.000Z,110,2022-10-21T08:16:25.027Z,45.48722,100,-61.14113,100,10.3,100,13.2,100,12.5,100,0.0,100,3.6,100,,-1,,-1,,-1,,-1,,-1,,-1,,-1,,-1,1020.3,100,10.4,100,280,100,13.0,100,5,100,3,1,0.3,1,1020.3,1,1020.3,100,1020.3,100,10.4,100,10.4,100,280,100,282,100,13.0,100,13.0,100
2022-10-21T08:20:00Z,44489,9302001,WEST CHEDABUCTO BAY,0,45.48687,-61.14100000000001,18,2022-10-21T08:20:00.000Z,110,2022-10-21T08:23:24.824Z,45.48722,100,-61.14115,100,10.3,100,13.2,100,12.5,100,0.0,100,3.6,100,,-1,,-1,,-1,,-1,,-1,,-1,,-1,,-1,1020.5,100,10.8,100,276,100,13.0,100,5,100,3,1,0.5,1,1020.5,1,1020.5,100,1020.5,100,10.8,100,10.4,100,276,100,278,100,13.0,100,13.0,100
2022-10-21T08:30:00Z,44489,9302001,WEST CHEDABUCTO BAY,0,45.48687,-61.14100000000001,18,2022-10-21T08:30:00.000Z,110,2022-10-21T08:33:29.308Z,45.48723,100,-61.14113,100,10.3,100,13.2,100,12.5,100,0.0,100,3.6,100,,-1,,-1,,-1,,-1,,-1,,-1,,-1,,-1,1020.6,100,11.9,100,279,100,14.4,100,5,100,3,1,0.5,1,1020.6,1,1020.6,100,1020.6,100,11.9,100,11.9,100,279,100,281,100,14.4,100,14.4,100
2022-10-21T08:40:00Z,44489,9302001,WEST CHEDABUCTO BAY,0,45.48687,-61.14100000000001,18,2022-10-21T08:40:00.000Z,110,2022-10-21T08:43:27.429Z,45.48722,100,-61.141130000000004,100,10.4,100,13.2,100,12.5,100,0.0,100,3.6,100,,-1,,-1,,-1,,-1,,-1,,-1,,-1,,-1,1020.8,100,12.6,100,281,100,14.8,100,5,100,3,1,0.7,1,1020.8,1,1020.8,100,1020.8,100,12.6,100,12.2,100,281,100,283,100,14.8,100,14.4,100
2022-10-21T08:50:00Z,44489,9302001,WEST CHEDABUCTO BAY,0,45.48687,-61.14100000000001,18,2022-10-21T08:50:00.000Z,110,2022-10-21T08:53:27.360Z,45.48723,100,-61.14113,100,10.4,100,13.2,100,12.5,100,0.0,100,3.6,100,,-1,,-1,,-1,,-1,,-1,,-1,,-1,,-1,1020.7,100,13.0,100,281,100,15.5,100,5,100,3,1,0.6,1,1020.7,1,1020.7,100,1020.8,100,13.0,100,13.0,100,281,100,283,100,15.5,100,15.1,100
2022-10-21T09:00:00Z,44489,9302001,WEST CHEDABUCTO BAY,0,45.48687,-61.14100000000001,18,2022-10-21T09:00:00.000Z,108,2022-10-21T09:03:31.955Z,45.48723,100,-61.141119999999994,100,10.3,100,13.2,100,12.5,100,0.0,100,3.6,100,0.4,100,1.0,100,9.5,100,0.6,100,0.7,100,9.5,100,6.3,100,10.0,100,1020.9,100,12.2,100,275,100,14.4,100,5,100,3,1,0.7,1,1020.9,1,1020.9,100,1020.9,100,12.2,100,11.9,100,275,100,277,100,14.4,100,14.4,100
2022-10-21T09:10:00Z,44489,9302001,WEST CHEDABUCTO BAY,0,45.48687,-61.14100000000001,18,2022-10-21T09:10:00.000Z,110,2022-10-21T09:16:41.507Z,45.48723,100,-61.14115,100,10.4,100,13.1,100,12.5,100,0.0,100,3.6,100,,-1,,-1,,-1,,-1,,-1,,-1,,-1,,-1,1021.0,100,11.9,100,272,100,14.4,100,5,100,3,1,1.0,1,1021.0,1,1021.0,100,1021.1,100,11.9,100,11.5,100,272,100,274,100,14.4,100,14.8,100
2022-10-21T09:20:00Z,44489,9302001,WEST CHEDABUCTO BAY,0,45.48687,-61.14100000000001,18,2022-10-21T09:20:00.000Z,110,2022-10-21T09:22:41.684Z,45.48723,100,-61.141130000000004,100,10.4,100,13.1,100,12.5,100,0.0,100,3.6,100,,-1,,-1,,-1,,-1,,-1,,-1,,-1,,-1,1021.1,100,11.2,100,264,100,14.0,100,5,100,3,1,1.1,1,1021.1,1,1021.1,100,1021.1,100,11.2,100,11.2,100,264,100,266,100,14.0,100,13.3,100